Regional Weather Roundup
Issued by NWS Spokane, WA

Home | Current Version | Previous Version | Text Only | Print | Product List | Glossary On
Versions: 1 2 3 4 5 6 7 8 9 10 11 12 13 14 15 16 17 18 19 20 21 22 23 24 25 26 27 28 29 30 31 32 33 34 35 36 37 38 39 40 41 42 43 44 45 46 47 48 49 50
511
NZUS01 KOTX 290400
RWROTX
EASTERN WASHINGTON/NORTHERN IDAHO ROUNDUP
NATIONAL WEATHER SERVICE, SPOKANE WA
900 PM PDT SAT MAY 28 2016

Note: "fair" indicated few or no clouds below 12,000 feet with no
significant weather and/or obstructions to visibility.

...NORTHEAST WASHINGTON AND NORTHERN IDAHO PANHANDLE...

CITY           SKY/WX    TMP DP  RH WIND       PRES   REMARKS
SPOKANE INTL   MOCLDY    58  36  43 S7        30.01S
SPOKANE DOWNTO MOCLDY    58  40  51 SE3       30.01S
COEUR D ALENE  MOCLDY    55  37  50 SE3       29.99S
DEER PARK      MOCLDY    52  43  71 SE3       30.01S

...SOUTHEAST WASHINGTON AND SOUTHERN IDAHO PANHANDLE...

CITY           SKY/WX    TMP DP  RH WIND       PRES   REMARKS
WALLA WALLA    MOCLDY    61  46  57 E7        29.97S
PULLMAN/MOSCOW CLEAR     52  43  71 CALM      30.04S
LOWELL           N/A     53  46  77 N3        30.02R

...COLUMBIA BASIN...

CITY           SKY/WX    TMP DP  RH WIND       PRES   REMARKS
EPHRATA        CLOUDY    63  40  42 SE5       29.95F
MOSES LAKE     CLOUDY    65  37  35 S8        29.96S
TRI CITIES     PTCLDY    65  45  48 E8        29.94F
HERMISTON      PTCLDY    63  43  48 SE7       29.94S
PENDLETON      PTCLDY    59  39  47 NE7       29.97S

...EAST SLOPES CASCADES...

CITY           SKY/WX    TMP DP  RH WIND       PRES   REMARKS
THE DALLES     PTCLDY    68  42  38 W13       29.97R
YAKIMA         MOCLDY    67  43  41 CALM      29.96S
ELLENSBURG     MOCLDY    58  46  64 W5        29.98S
STAMPEDE PASS  FOG       44  42  93 CALM      30.04R VSB 1/2
WENATCHEE      MOCLDY    63  43  48 NW9       29.96S
OMAK           CLOUDY    64  39  39 S8        29.93S

...SOUTHERN BRITISH COLUMBIA...

CITY           SKY/WX    TMP DP  RH WIND       PRES   REMARKS

...WESTERN MONTANA...

CITY           SKY/WX    TMP DP  RH WIND       PRES   REMARKS
MISSOULA       CLEAR     51  35  54 MISG      30.05R

...NEIGHBORING CITIES...

CITY           SKY/WX    TMP DP  RH WIND       PRES   REMARKS
SEATTLE        CLOUDY    55  54  96 S6        30.04S FOG



USA.gov is the U.S. government's official web portal to all federal, state and local government web resources and services.